This demonstration page uses our WeatherBlox Daily Observations layout. Learn more.

36.17497, -115.13722

Hourly Observations for May 27, 2015

Temp ( °F °C ) Dew Point ( °F °C ) Humidity (%) Winds ( mph kmh ) Pressure ( in mb ) Visibility ( mi km ) Precip ( " mm )
12:53 am 00:53 Clear 76 24.4 31 -0.6 19 19 VRB 6 9 29.85 1011 10 16.0934 0 0
1:53 am 01:53 Clear 74 23.3 31 -0.6 20 20 ENE 8 13 29.85 1011 10 16.0934 0 0
2:53 am 02:53 Clear 71 21.7 28 -2.2 20 20 E 6 9 29.86 1011 10 16.0934 0 0
3:53 am 03:53 Clear 72 22.2 27 -2.8 19 19 Calm 29.87 1012 10 16.0934 0 0
4:53 am 04:53 Clear 70 21.1 26 -3.3 19 19 N 3 6 29.88 1012 10 16.0934 0 0
5:53 am 05:53 Sunny 69 20.6 28 -2.2 22 22 N 3 6 29.9 1012 10 16.0934 0 0
6:53 am 06:53 Sunny 72 22.2 32 0 23 23 Calm 29.91 1013 10 16.0934 0 0
7:53 am 07:53 Sunny 76 24.4 31 -0.6 19 19 ESE 5 7 29.92 1013 10 16.0934 0 0
8:53 am 08:53 Sunny 79 26.1 29 -1.7 16 16 ESE 9 15 29.93 1014 10 16.0934 0 0
9:53 am 09:53 Sunny 80 26.7 31 -0.6 17 17 SE 7 11 29.93 1013 10 16.0934 0 0
10:53 am 10:53 Sunny 83 28.3 31 -0.6 15 15 VRB 5 7 29.92 1013 10 16.0934 0 0
11:53 am 11:53 Sunny 85 29.4 29 -1.7 13 13 VRB 7 11 29.91 1013 10 16.0934 0 0
12:53 pm 12:53 Sunny 86 30 29 -1.7 13 13 SE 8 13 29.89 1012 10 16.0934 0 0
1:53 pm 13:53 Sunny 88 31.1 28 -2.2 11 11 VRB 6 9 29.87 1012 10 16.0934 0 0
2:53 pm 14:53 Sunny 90 32.2 26 -3.3 10 10 VRB 5 7 29.84 1011 10 16.0934 0 0
3:53 pm 15:53 Sunny 91 32.8 26 -3.3 9 9 SE 10 17 29.8 1009 10 16.0934 0 0
4:53 pm 16:53 Sunny 92 33.3 26 -3.3 9 9 SSE 8 13 29.79 1009 10 16.0934 0 0
5:53 pm 17:53 Sunny 92 33.3 28 -2.2 10 10 S 15 24 29.77 1008 10 16.0934 0 0
6:53 pm 18:53 Sunny 91 32.8 28 -2.2 10 10 SSE 12 19 29.77 1008 10 16.0934 0 0
7:53 pm 19:53 Clear 88 31.1 26 -3.3 10 10 SSE 15 24 29.79 1009 10 16.0934 0 0
8:53 pm 20:53 Clear 86 30 28 -2.2 12 12 S 6 9 29.8 1009 10 16.0934 0 0
9:53 pm 21:53 Clear 84 28.9 26 -3.3 12 12 SE 8 13 29.83 1010 10 16.0934 0 0
10:53 pm 22:53 Clear 83 28.3 28 -2.2 13 13 SSW 7 11 29.84 1010 10 16.0934 0 0
11:53 pm 23:53 Clear 81 27.2 29 -1.7 15 15 VRB 5 7 29.85 1011 10 16.0934 0 0

Powered by AerisWeather